STARLINK-30525, 58012

Orbit data source: Space-Track

STARLINK-30525, 58012 is a payload satellite owned by SpaceX/Seattle (US) in LEO that was launched on Thu, 05 Oct 2023 UTC via an FALCON 9 launch vehicle from the Air Force Eastern Test Range (AFETR). Payload-class satellites include a variety of spacecraft equipped with specific instruments for various scientific and technological missions. These include communications satellites like Starlink; space stations such as the ISS; scientific satellites like the Hubble; Earth observation satellites from companies like Planet Labs, Umbra, and HawkEye 360; GPS; miniature CubeSats for education and research; and military/defense satellites.

Loading next visibility...
Identifier
58012, 2023-153X
Orbit
LEO
Country
Flag of USUS
Related business
Manufacturer
SpaceX/Seattle
Mission
Operational Commercial Communications
Bus & Motor
STARLINK V2M, Unknown motor
Mass
730 kg wet, ~700 kg dry
Launch date (UTC)
2023-10-05 (3 years ago)
Launch vehicle
FALCON 9
Launch site
Air Force Eastern Test Range (AFETR)
Object type
Payload
Rocket body
Debris
Shape & HBR
Box + 2 Pan, 17.7 m
Radar Cross Section
33.884 m², Large (>1 m²)

Expand to show TLE details & history
Last TLE update: 2 days ago

TLE from 2 days ago
0 STARLINK-30525
1 58012U 23153X   26171.44636906  .00001282  00000-0  56112-4 0  9997
2 58012  43.0005 206.5524 0001370 269.8026  90.2669 15.27580915150616
Epoch: 2026-06-20T10:42Z
TLE epoch observation values (Epoch: 2026-06-20T10:42:46.286Z)
Latitude
-0.00001°
Longitude
137.19866°
Altitude
482.826 km
Speed
7.626 km/s
True Right ascension
13h 46m 12s
True Declination
0° 00' 00"
Sunlit
Object was in full shadow at epoch
Visualization orbit readout
Latitude
Unknown
Longitude
Unknown
Altitude
Unknown
Speed
Unknown
Apparent Right ascension
Unknown
Apparent Declination
Unknown
Sunlit
N/A
Visualization observer readout
Local Sidereal Time
21:27:12
Azimuth
Unknown
Elevation
Unknown
Doppler factor
Unknown
Orbital elements
Apogee altitude
485.932 km
Perigee altitude
484.051 km
Semi-major axis
6,863.128 km
Eccentricity
0.00014
Inclination
43.0005°
RAAN
206.5524°
Arg. of periapsis
269.8026°
True anomaly
90.2826°
Mean anomaly
90.2669°
Eccentric anomaly
90.27475°
Mean motion
3.81733 °/min
Orbital period
94.31 mins
BSTAR
0.000056112
Loading maneuver chart data...
Computing Atmospheric mass density...
Loading historical data...
Loading historical data...
Loading historical data...
Loading historical data...
Loading historical data...
Loading historical data...
Loading historical data...

Documentation

Showing up to 5 results
|